Location: Chevoux
(46.3801°N, 4.9476°E)
Time: 02:50:19
(UTC+00:00)

A-11 Canister half - Visible Passes

Search period start: 12 May 2021 00:00
Search period end: 22 May 2021 00:00
Orbit: 1514 x 1685 km, 47.2° (Epoch: 11 May)

Date Brightness Start Highest point End Pass type
(mag) Time Alt. Az. Time Alt. Az. Time Alt. Az.
12 May 9.2 20:02:07 10° WNW 20:11:14 62° SSW 20:19:36 14° SE visible
12 May 10.2 22:07:54 10° W 22:14:48 23° SW 22:17:47 20° SSW visible
13 May 9.2 19:39:13 10° WNW 19:48:21 64° SSW 19:57:45 10° SE visible
13 May 10.2 21:44:52 10° W 21:52:00 25° SW 21:56:01 19° SSW visible
14 May 10.1 21:21:51 10° W 21:29:10 27° SW 21:34:18 17° S visible
15 May 10.1 20:58:50 10° W 21:06:21 28° SW 21:12:36 14° S visible
16 May 10.1 20:35:50 10° WNW 20:43:31 30° SW 20:50:57 11° S visible
17 May 10.1 20:12:51 10° WNW 20:20:41 32° SW 20:28:43 10° SSE visible
18 May 10.0 19:49:53 10° WNW 19:57:51 34° SW 20:06:02 10° SSE visible
